カタログに戻る

STARLINK-34052

運用中通信VLEO
NORAD 63874·PAYLOAD·🇺🇸 United States

打ち上げ May 10, 2025 から Vandenberg Space Force Base

Loading…

次のパス (今後24時間)

TLE

最新Source: CelesTrak SupGP

元期: Sep 15, 2026, 02:38 UTC

1 63874C 25094L   26258.11020833  .00003559  00000+0  12366-3 0  2589
2 63874  69.9986 115.0221 0003122 273.7694  56.2015 15.29610821    10

AllMySatでSTARLINK-34052をリアルタイム追跡

Download on the App Store